Location: *
(55.6478°S, 141.9751°W)
Time: 10:49:13
(UTC+00:00)

Daily predictions for brighter satellites

Satellite Brightness Start Highest point End
(mag) Time Altitude Azimuth Time Altitude Azimuth Time Altitude Azimuth
ATLAS 5 CENTAUR R/B 4.0 12:09:12 29° SE 12:09:12 29° SE 12:12:09 10° ESE
Cosmos 2237 Rocket 3.9 12:23:40 30° ESE 12:23:40 30° ESE 12:27:02 10° SE
Cosmos 2333 Rocket 3.8 12:26:41 30° SE 12:26:41 30° SE 12:29:27 10° SE
SL-16 R/B 3.5 12:29:58 10° SSE 12:34:05 43° SSE 12:34:05 43° SSE
SL-16 R/B 4.0 13:07:54 23° S 13:07:54 23° S 13:11:18 10° SSE
Lacrosse 5 3.3 13:08:27 34° ENE 13:08:27 34° ENE 13:11:57 10° ESE
Cosmos 2219 Rocket 3.2 13:13:23 39° S 13:13:23 39° S 13:17:09 10° SSE
Meteor 2-14 Rocket 4.5 13:20:30 76° ENE 13:20:45 77° E 13:27:00 10° SSE
Cosmos 2369 Rocket 2.5 13:24:35 57° SSE 13:25:22 64° SE 13:31:01 10° NE
Cosmos 2322 Rocket 3.9 13:27:58 22° SSW 13:27:58 22° SSW 13:31:48 10° SSE
CZ-4B R/B 4.3 13:25:15 10° NE 13:30:37 44° ESE 13:35:59 10° S
SL-08 R/B 4.0 13:28:14 10° SSE 13:31:54 52° SSE 13:31:54 52° SSE
SL-16 R/B 3.0 13:32:12 38° NNE 13:33:46 48° ENE 13:39:16 10° SE
Cosmos 1244 Rocket 4.5 13:34:50 56° N 13:36:14 81° E 13:42:30 10° SSE
Cosmos 1809 Rocket 4.4 13:37:13 72° SW 13:37:13 72° SW 13:43:11 10° S
Envisat 4.4 13:32:11 10° NE 13:36:55 38° ESE 13:41:41 10° S
Meteor 1-21 Rocket 4.3 13:36:35 65° NNE 13:37:26 78° E 13:43:22 10° SSE
ASTEX 1 4.1 13:33:57 10° NNE 13:38:52 55° ESE 13:43:51 10° S
Cosmos 2360 Rocket 3.6 13:39:55 25° SSW 13:39:55 25° SSW 13:43:57 10° SSE
Gbstr 26 Del rocket 4.4 13:41:47 56° NNW 13:42:17 57° NNW 13:50:06 10° ENE
NOSS 0 Rocket 3.9 13:42:19 69° SW 13:42:20 69° SW 13:48:36 10° SE
Cosmos 304 Rocket 4.4 13:42:29 44° S 13:43:38 55° SE 13:48:25 10° NE
Cosmos 1943 Rocket 2.2 13:47:13 65° N 13:47:13 65° N 13:52:03 10° NNE
Cosmos 1680 Rocket 3.5 13:46:46 76° NNE 13:47:03 79° ENE 13:52:26 10° SSE
COSMOS 2428 3.5 13:50:10 39° SSW 13:50:10 39° SSW 13:55:01 10° SSE
Cosmos 1980 Rocket 4.2 13:48:19 15° SSW 13:50:09 17° S 13:53:50 10° SE
Nadezhda 1 Rocket 4.0 13:44:16 10° S 13:50:39 87° E 13:57:03 10° N
Cosmos 158 Rocket 3.9 13:51:19 82° NNE 13:51:28 84° ENE 13:56:36 10° SSE
ATLAS 5 CENTAUR R/B 3.1 13:50:43 35° SSW 13:52:23 43° S 13:57:35 10° E
USA 234 3.3 13:47:43 10° ESE 13:54:22 74° NNE 13:56:13 50° NW
Cosmos 44 4.2 13:56:18 40° SSW 13:56:18 40° SSW 14:00:45 10° SE
MOS 1-B 4.3 13:50:11 10° NNE 13:56:02 89° ESE 14:01:57 10° SSW
Nadezhda 2 Rocket 4.3 13:55:33 62° NW 13:56:28 71° WSW 14:02:48 10° S
Cosmos 1980 3.7 13:56:56 61° SW 13:56:56 61° SW 14:02:38 10° SSE
Meteor 2-21 4.4 13:57:07 62° W 13:57:29 63° WSW 14:03:47 10° S
Radarsat Rocket 4.1 13:51:52 10° NNE 13:57:46 74° ESE 14:03:43 10° SSW
H-2A R/B 4.4 13:55:55 10° NNE 13:57:48 27° NE 13:57:48 27° NE
Cosmos 44 Rocket 3.3 14:00:07 76° NNW 14:00:29 83° NE 14:05:34 10° SE
Cosmos 1452 Rocket 3.5 13:58:39 36° SSW 14:00:57 82° ESE 14:06:19 10° NNE
Okean O Rocket 2.2 14:00:24 10° NNE 14:04:48 58° ESE 14:09:14 10° S
Cosmos 2237 Rocket 2.3 14:05:30 56° WSW 14:05:44 57° SW 14:11:24 10° SSE
Cosmos 2333 Rocket 3.2 14:08:42 31° SSW 14:08:42 31° SSW 14:13:43 10° SSE
H-2A R/B 2.5 14:06:15 10° SSE 14:10:47 65° ENE 14:13:24 24° N
Cosmos 332 Rocket 3.7 14:15:09 67° W 14:15:29 70° WNW 14:20:21 10° NNE
SL-08 ROCKET BODY 4.3 14:11:59 10° N 14:17:53 89° E 14:23:55 10° SSE
Cosmos 923 Rocket 4.1 14:18:40 54° WSW 14:18:59 55° SW 14:24:12 10° SSE
SL-16 R/B 3.5 14:14:07 10° S 14:19:11 29° SW 14:19:11 29° SW
ERS-2 2.6 14:17:29 10° SSE 14:21:13 60° ENE 14:22:59 28° N
CSL-04 DEB 4.4 14:21:39 10° SSE 14:25:58 87° WSW 14:27:18 44° NNW
Cosmos 371 Rocket 4.1 14:30:17 34° NNW 14:30:17 34° NNW 14:33:32 10° N
Cosmos 1420 Rocket 4.2 14:31:10 46° WNW 14:31:13 46° WNW 14:36:11 10° N
Meteor 2-2 Rocket 4.5 14:34:30 10° SSW 14:40:41 82° ESE 14:46:45 10° NNE
SMAP 3.0 14:36:07 10° NNE 14:40:50 88° WNW 14:45:38 10° SSW
CZ-4 R/B 3.6 14:38:35 10° ENE 14:42:06 27° ESE 14:45:36 10° S
CZ-4B R/B 2.3 14:42:17 10° SSE 14:45:49 54° ENE 14:49:18 10° N
Landsat 5 3.3 14:42:57 10° S 14:46:59 62° WSW 14:48:33 34° NW
YAOGAN 6 2.4 14:45:24 10° NNE 14:48:58 80° WNW 14:52:39 10° SSW
Cosmos 2181 Rocket 4.1 14:43:07 10° SSW 14:49:43 88° WNW 14:56:13 10° N
Lacrosse 5 1.8 14:47:38 35° WNW 14:49:51 90° SSW 14:55:03 10° ESE
Cosmos 1758 Rocket 4.1 14:51:58 37° W 14:52:27 38° WSW 14:56:47 10° S
Meteor 1-27 4.3 14:47:17 10° SSW 14:52:47 54° W 14:58:15 10° N
SL-16 R/B 4.2 14:49:45 12° SW 14:52:52 17° S 14:56:39 10° SE
Radarsat 4.5 14:50:04 10° NNE 14:55:19 79° WNW 15:00:39 10° SSW
H-2A R/B 4.3 14:52:05 10° ENE 14:56:24 25° SE 15:00:48 10° S
Cosmos 2219 Rocket 3.6 14:55:06 20° SW 14:56:46 22° SSW 15:01:11 10° SSE
Cosmos 2221 2.5 14:55:44 10° SSW 15:00:13 71° W 15:04:39 10° N
Cosmos 1110 Rocket 3.9 14:55:46 10° SSW 15:01:02 79° WNW 15:06:16 10° NNE
IRS-1C Rocket 4.2 14:59:22 10° NNE 15:04:41 81° ESE 15:10:04 10° SSW
ARGOS Delta rocket 3.7 15:03:45 10° N 15:08:07 56° W 15:12:39 10° SSW
MOLY 3-50 4.3 15:06:56 27° WSW 15:08:49 55° NW 15:16:33 10° NE
Cosmos 2369 Rocket 2.8 15:06:25 22° WSW 15:09:07 33° WNW 15:14:07 10° N
SL-08 R/B 4.5 15:06:42 10° S 15:10:26 23° SW 15:10:53 23° WSW
CZ-4B R/B 3.6 15:05:45 10° N 15:11:12 45° W 15:16:41 10° SSW
Cosmos 1656 Rocket 3.8 15:07:47 13° SW 15:12:41 52° WNW 15:18:05 10° N
Cosmos 1825 Rocket 4.3 15:11:22 26° W 15:12:49 31° WSW 15:16:53 10° S
Cosmos 2322 Rocket 4.2 15:09:46 10° SW 15:13:31 17° S 15:17:16 10° SE
CZ-4C R/B 4.3 15:11:55 10° S 15:13:55 22° SW 15:13:55 22° SW
Envisat 3.3 15:11:00 10° N 15:15:55 45° W 15:20:54 10° SSW
Cosmos 1302 Rocket 4.2 15:11:00 10° SSW 15:16:24 76° ESE 15:21:44 10° NNE
Helios 1A Rocket 2.9 15:12:19 10° NNE 15:16:33 87° WNW 15:20:50 10° SSW
Cosmos 1745 Rocket 4.3 15:12:05 10° NW 15:17:57 44° WSW 15:23:54 10° S
SL-16 R/B 2.5 15:14:07 19° WNW 15:18:00 47° SW 15:23:32 10° SSE
ASTEX 1 4.2 15:13:51 10° NW 15:18:11 28° W 15:22:35 10° SSW
Cosmos 1939 Rocket 3.3 15:16:39 10° NNE 15:20:49 68° ESE 15:25:00 10° S
Cosmos 1953 Rocket 4.1 15:17:56 10° NW 15:21:57 35° WSW 15:26:03 10° S
ADEOS Rocket 3.2 15:16:58 10° SSE 15:23:01 80° ENE 15:29:43 10° NNW
Cosmos 1869 3.8 15:20:19 10° SSW 15:23:58 37° W 15:27:37 10° NNW
Meteor 1-11 4.5 15:18:46 10° NW 15:24:10 46° WSW 15:29:39 10° S
Cosmos 2360 Rocket 4.1 15:21:40 10° SW 15:25:15 17° S 15:28:57 10° SE
Cosmos 1842 Rocket 4.1 15:22:41 10° SSW 15:26:53 37° W 15:31:00 10° NNW
Cosmos 2184 Rocket 4.4 15:21:57 10° N 15:28:05 68° E 15:34:20 10° SSE
Okean-O 2.8 15:24:32 10° NNE 15:29:02 81° ESE 15:33:36 10° SSW
Cosmos 1943 Rocket 3.5 15:28:48 18° W 15:29:19 18° W 15:32:57 10° NW
DNEPR-1 R/B 3.9 15:25:14 10° NW 15:29:58 83° SW 15:35:47 10° SE
Cosmos 2074 Rocket 4.3 15:26:34 10° N 15:32:53 75° E 15:39:15 10° SSE
COSMOS 2428 4.3 15:32:11 13° SW 15:35:27 20° SSW 15:39:37 10° SSE
Nadezhda 3 Rocket 4.3 15:29:40 10° S 15:36:07 79° ESE 15:42:33 10° NNE
Cosmos 1980 Rocket 3.9 15:31:26 10° SSW 15:36:10 26° SSE 15:40:54 10° E
USA 234 3.3 15:30:52 10° E 15:37:31 81° S 15:43:34 13° W
ATLAS 5 CENTAUR R/B 2.2 15:32:15 12° SW 15:37:51 80° SE 15:42:54 10° ENE
Cosmos 1892 2.6 15:34:40 10° NNW 15:38:29 68° WSW 15:42:22 10° S
NOAA 11 4.2 15:33:19 10° N 15:38:49 69° WNW 15:44:22 10° SSW
Okean O Rocket 2.7 15:37:51 10° NW 15:41:30 24° W 15:45:09 10° SW
Cosmos 44 Rocket 4.1 15:38:50 16° W 15:42:30 38° SSW 15:47:11 10° SE
SKYMED 2 4.0 15:41:53 10° SSE 15:46:21 70° ENE 15:50:45 10° N
H-2A R/B 3.3 15:42:45 10° S 15:46:24 24° SW 15:49:57 10° WNW
SL-24 R/B - RUBIN 2 4.3 15:44:13 10° SW 15:48:19 45° SSE 15:52:35 10° ENE
Cosmos 1331 Rocket 4.5 15:44:10 10° SW 15:49:05 41° WNW 15:54:01 10° N
BREEZE-M DEB (TANK) 3.8 15:42:54 10° WNW 15:50:47 40° N 15:53:41 10° ENE
Cosmos 1656 4.4 15:45:10 10° SSW 15:50:50 54° SE 15:56:23 10° NE
Cosmos 2237 Rocket 3.5 15:47:20 13° WSW 15:51:02 23° SSW 15:55:33 10° SSE
Cosmos 1697 Rocket 3.9 15:45:50 10° SSW 15:51:13 39° SE 15:56:35 10° ENE
Cosmos 1992 Rocket 4.4 15:46:11 10° SSW 15:51:29 65° ESE 15:56:43 10° NE
Cosmos 1689 Rocket 2.2 15:48:42 10° S 15:51:44 53° WSW 15:54:42 10° NNW
ERS-2 3.6 15:51:41 10° S 15:54:26 20° WSW 15:57:10 10° WNW
Cosmos 2333 Rocket 4.0 15:50:57 10° SW 15:54:49 18° S 15:58:40 10° SE
Cosmos 494 Rocket 4.1 15:49:29 10° NNW 15:54:49 87° ENE 16:00:13 10° SSE
Genesis I 4.4 15:51:41 10° SW 15:55:23 35° SSE 15:59:04 10° E
Cosmos 1340 3.6 15:52:51 10° N 15:56:35 55° E 16:00:23 10° SSE
Cosmos 1603 3.7 15:52:20 10° NW 15:57:57 65° SW 16:03:38 10° SSE
Cosmos 1818 3.9 15:52:44 10° SW 15:58:10 66° SE 16:03:34 10° ENE
Cosmos 1709 Rocket 4.4 15:52:27 10° NW 15:58:15 40° WSW 16:04:11 10° S
Cosmos 1606 2.7 15:54:40 10° SSW 15:58:37 86° WNW 16:02:31 10° N
Cosmos 1151 Rocket 3.4 15:55:07 10° S 15:59:38 73° ESE 16:04:04 10° NNE
Ariane Rocket 4.4 15:54:58 10° NE 15:59:46 40° ESE 16:04:37 10° S
Cosmos 2058 3.1 15:56:01 10° NNW 16:00:11 50° WSW 16:04:23 10° S
SL-16 R/B 4.4 15:59:40 10° SSW 16:01:09 11° SSW 16:02:36 10° SW
Cosmos 1408 2.8 16:03:37 10° NNW 16:07:13 50° WSW 16:10:51 10° S
Cosmos 292 Rocket 4.1 16:02:58 10° SW 16:07:45 50° WNW 16:12:29 10° N
Cosmos 1782 3.9 16:09:06 10° S 16:13:05 48° ESE 16:17:00 10° NNE
Cosmos 2154 Rocket 4.1 16:08:41 10° N 16:15:00 89° W 16:21:21 10° SSE
CZ-4 R/B 1.7 16:12:54 10° N 16:16:56 47° W 16:20:58 10° SSW
Iridium 2 4.0 16:13:21 10° S 16:17:17 77° E 16:21:11 10° N
USA 186 3.4 16:14:23 10° NE 16:17:35 39° ESE 16:20:49 10° S
CZ-4B R/B 2.9 16:15:09 10° SSW 16:17:47 20° WSW 16:20:24 10° WNW
Cosmos 1607 4.0 16:11:50 10° WNW 16:18:06 63° SW 16:24:17 10° SE
Cosmos 1943 3.4 16:14:40 10° NW 16:20:18 57° SW 16:26:01 10° SSE
Cosmos 1933 3.3 16:16:42 10° SSW 16:20:50 73° W 16:24:53 10° N
CZ-2C R/B 3.5 16:15:50 10° NNE 16:21:43 87° WNW 16:27:40 10° SSW
